Ketchikan, AK

9:58 PM AKDT on September 20, 2018 (GMT -0800)
Ketchikan International

Weather History for PAKT - September, 2017

Change the Weather History Date:

Saturday, September 23, 2017

  Actual Average Record
Temperature  
Mean Temperature 54 °F -  
Max Temperature 55 °F 58 °F 70 °F (1952)
Min Temperature 53 °F 46 °F 32 °F (2003)
Degree Days  
Heating Degree Days 11    
Growing Degree Days 4 (Base 50)    
Moisture  
Dew Point 54 °F    
Average Humidity 96    
Maximum Humidity 100    
Minimum Humidity 93    
Precipitation  
Precipitation 0.55 in - - ()
Sea Level Pressure  
Sea Level Pressure 29.93 in    
Wind  
Wind Speed 10 mph (SE)    
Max Wind Speed 20 mph    
Max Gust Speed 26 mph    
Visibility 5 miles    
Events Rain    
Averages and records for this station are not official NWS values.
T = Trace of Precipitation, MM = Missing Value Source: NWS Daily Summary

Daily Weather History Graph

Daily Weather History Graph

Search for Another Location

Airport or City:

Astronomy

Sep. 23, 2017 Rise Set
Actual Time 6:35 AM AKDT 6:41 PM AKDT
Civil Twilight 5:58 AM AKDT 7:18 PM AKDT
Nautical Twilight 5:15 AM AKDT 8:01 PM AKDT
Astronomical Twilight 4:29 AM AKDT 8:47 PM AKDT
Moon 10:29 AM AKDT (9/23) 8:28 PM AKDT (9/23)
Length of Visible Light 13h 19m
Length of Day
12h 06m
Waxing Crescent, 13% of the Moon is Illuminated
Sep 23
Waxing Crescent
Sep 27
First Quarter
Oct 5
Full
Oct 12
Last Quarter
Oct 19
New

Hourly Weather History & Observations

Time (AKDT) Temp. Dew Point Humidity Pressure Visibility Wind Dir Wind Speed Gust Speed Precip Events Conditions
12:03 AM 54.0 °F 53.1 °F 97% 30.02 in 10.0 mi South 3.5 mph - N/A   Overcast
12:53 AM 54.0 °F 53.1 °F 97% 30.02 in 9.0 mi South 3.5 mph - 0.00 in   Overcast
1:53 AM 54.0 °F 53.1 °F 97% 30.01 in 4.0 mi SSE 6.9 mph - 0.01 in   Overcast
2:53 AM 54.0 °F 53.1 °F 97% 30.00 in 9.0 mi SSE 6.9 mph - 0.00 in Rain Light Rain
3:45 AM 54.0 °F 53.1 °F 97% 29.99 in 5.0 mi SSE 8.1 mph - 0.02 in Rain Light Rain
3:53 AM 54.0 °F 53.1 °F 97% 29.99 in 4.0 mi SSE 5.8 mph - 0.03 in Rain Light Rain
4:10 AM 54.0 °F 53.1 °F 97% 29.98 in 7.0 mi SSE 8.1 mph - 0.02 in Rain Light Rain
4:53 AM 54.0 °F 53.1 °F 97% 29.98 in 10.0 mi South 9.2 mph - 0.04 in Rain Light Rain
5:53 AM 54.0 °F 53.1 °F 97% 29.97 in 7.0 mi SSE 9.2 mph - 0.03 in Rain Light Rain
6:07 AM 53.6 °F 53.6 °F 100% 29.97 in 4.0 mi SSE 12.7 mph 20.7 mph N/A Rain Light Rain
6:53 AM 53.6 °F 53.6 °F 100% 29.96 in 5.0 mi SSE 10.4 mph - N/A Rain Light Rain
7:53 AM 53.6 °F 53.6 °F 100% 29.95 in 4.0 mi SE 13.8 mph - N/A Rain Light Rain
8:53 AM 54.0 °F 53.1 °F 97% 29.94 in 3.0 mi SE 15.0 mph - 0.07 in Rain Light Rain
9:53 AM 55.4 °F 53.6 °F 94% 29.94 in 3.0 mi SE 13.8 mph - N/A Rain Rain
10:53 AM 55.4 °F 53.6 °F 94% 29.94 in 3.0 mi SE 12.7 mph - N/A Rain Rain
11:53 AM 55.4 °F 53.6 °F 94% 29.93 in 3.0 mi SE 11.5 mph - N/A Rain Light Rain
12:53 PM 55.0 °F 54.0 °F 96% 29.93 in 3.0 mi SE 15.0 mph 24.2 mph 0.01 in Rain Light Rain
1:53 PM 55.4 °F 53.6 °F 94% 29.92 in 3.0 mi ESE 16.1 mph - N/A Rain Light Rain
1:56 PM 55.0 °F 54.0 °F 96% 29.91 in 2.5 mi ESE 16.1 mph - 0.00 in Rain Light Rain
2:03 PM 55.0 °F 54.0 °F 96% 29.91 in 3.0 mi SE 19.6 mph - 0.00 in Rain Light Rain
2:53 PM 55.4 °F 53.6 °F 94% 29.91 in 3.0 mi ESE 17.3 mph - N/A Rain Light Rain
3:53 PM 55.4 °F 53.6 °F 94% 29.91 in 3.0 mi ESE 15.0 mph - N/A Rain Rain
4:53 PM 55.9 °F 55.0 °F 97% 29.89 in 4.0 mi ESE 15.0 mph - 0.09 in Rain Light Rain
5:53 PM 55.4 °F 55.4 °F 100% 29.88 in 6.0 mi SE 16.1 mph - N/A Rain Light Rain
6:53 PM 55.4 °F 55.4 °F 100% 29.87 in 4.0 mi ESE 15.0 mph - N/A Rain Rain
7:53 PM 55.4 °F 55.4 °F 100% 29.87 in 4.0 mi SE 17.3 mph 26.5 mph N/A Rain Rain
8:53 PM 55.4 °F 53.6 °F 94% 29.87 in 6.0 mi SE 19.6 mph - N/A Rain Light Rain
9:53 PM 55.9 °F 54.0 °F 93% 29.86 in 4.0 mi SE 15.0 mph 25.3 mph 0.05 in Rain Light Rain
9:58 PM 55.9 °F 54.0 °F 93% 29.86 in 4.0 mi SE 19.6 mph 25.3 mph 0.01 in Rain Light Rain
10:53 PM 55.9 °F 55.0 °F 97% 29.87 in 4.0 mi SE 18.4 mph 26.5 mph 0.08 in Rain Rain
11:53 PM 55.9 °F 54.0 °F 93% 29.88 in 5.0 mi SE 15.0 mph - 0.14 in Rain Rain